Port Angeles, WA

11:01 PM PDT on March 22, 2017 (GMT -0700)
Fairchild International

Weather History for KCLM - May, 2013

Change the Weather History Date:

Wednesday, May 29, 2013

  Actual Average Record
Temperature  
Mean Temperature 52 °F -  
Max Temperature 55 °F 62 °F 86 °F (1983)
Min Temperature 48 °F 47 °F 35 °F (1988)
Degree Days  
Heating Degree Days 14    
Growing Degree Days 2 (Base 50)    
Moisture  
Dew Point 47 °F    
Average Humidity 87    
Maximum Humidity 93    
Minimum Humidity 74    
Precipitation  
Precipitation 0.35 in - - ()
Sea Level Pressure  
Sea Level Pressure 29.81 in    
Wind  
Wind Speed 7 mph (WNW)    
Max Wind Speed 17 mph    
Max Gust Speed 26 mph    
Visibility 9 miles    
Events Rain    
Averages and records for this station are not official NWS values.
T = Trace of Precipitation, MM = Missing Value Source: NWS Daily Summary

Daily Weather History Graph

Daily Weather History Graph

Search for Another Location

Airport or City:

Trip Planner

Search our weather history database for the weather conditions in past years. The results will help you decide how hot, cold, wet, or windy it might be!

Date:

Astronomy

May. 29, 2013 Rise Set
Actual Time 5:20 AM PDT 9:03 PM PDT
Civil Twilight 4:40 AM PDT 9:43 PM PDT
Nautical Twilight 3:46 AM PDT 10:37 PM PDT
Astronomical Twilight 2:30 AM PDT 11:54 PM PDT
Moon 12:18 AM PDT (5/29) 10:39 AM PDT (5/29)
Length of Visible Light 17h 02m
Length of Day
15h 43m
Waning Gibbous, 72% of the Moon is Illuminated
May 29
Waning Gibbous
May 31
Last Quarter
Jun 8
New
Jun 16
First Quarter
Jun 23
Full

Hourly Weather History & Observations

Time (PDT) Temp. Dew Point Humidity Pressure Visibility Wind Dir Wind Speed Gust Speed Precip Events Conditions
12:53 AM 51.1 °F 46.9 °F 86% 29.76 in 10.0 mi WSW 4.6 mph - N/A   Overcast
1:53 AM 50.0 °F 46.0 °F 86% 29.75 in 10.0 mi WSW 4.6 mph - N/A   Overcast
2:53 AM 50.0 °F 46.0 °F 86% 29.73 in 10.0 mi SW 6.9 mph - N/A   Overcast
3:53 AM 50.0 °F 46.9 °F 89% 29.71 in 7.0 mi WSW 4.6 mph - 0.04 in Rain Light Rain
4:14 AM 50.0 °F 46.9 °F 89% 29.70 in 9.0 mi WSW 5.8 mph - 0.02 in Rain Light Rain
4:53 AM 48.9 °F 46.9 °F 93% 29.71 in 4.0 mi West 5.8 mph - 0.13 in Rain Rain
5:15 AM 48.9 °F 46.9 °F 93% 29.70 in 5.0 mi West 5.8 mph - 0.06 in Rain Rain
5:53 AM 48.9 °F 46.9 °F 93% 29.71 in 10.0 mi West 5.8 mph - 0.09 in Rain Light Rain
6:53 AM 48.9 °F 46.9 °F 93% 29.71 in 9.0 mi WNW 4.6 mph - 0.02 in Rain Light Rain
7:02 AM 48.9 °F 46.9 °F 93% 29.71 in 7.0 mi WNW 4.6 mph - 0.01 in Rain Light Rain
7:37 AM 48.9 °F 46.9 °F 93% 29.71 in 10.0 mi WNW 5.8 mph - 0.02 in Rain Light Rain
7:46 AM 48.9 °F 46.9 °F 93% 29.72 in 10.0 mi West 5.8 mph - 0.02 in   Overcast
7:53 AM 48.9 °F 46.9 °F 93% 29.72 in 10.0 mi West 5.8 mph - 0.02 in Rain Light Rain
8:53 AM 50.0 °F 48.0 °F 93% 29.73 in 3.0 mi West 6.9 mph - 0.04 in Rain Light Rain
9:03 AM 50.0 °F 46.9 °F 89% 29.73 in 3.0 mi West 10.4 mph - 0.00 in Rain Light Rain
9:19 AM 50.0 °F 46.9 °F 89% 29.73 in 2.5 mi West 12.7 mph - 0.01 in Rain Light Rain
9:27 AM 50.0 °F 46.9 °F 89% 29.73 in 3.0 mi West 9.2 mph - 0.01 in Rain Light Rain
9:53 AM 51.1 °F 48.0 °F 89% 29.75 in 10.0 mi West 9.2 mph - 0.01 in   Overcast
10:53 AM 53.1 °F 48.0 °F 83% 29.76 in 10.0 mi WNW 8.1 mph - N/A   Overcast
11:53 AM 54.0 °F 48.0 °F 80% 29.78 in 10.0 mi WNW 8.1 mph - 0.00 in   Overcast
12:13 PM 53.1 °F 46.9 °F 80% 29.78 in 10.0 mi NW 9.2 mph - N/A   Overcast
12:37 PM 55.0 °F 46.9 °F 74% 29.78 in 10.0 mi NW 10.4 mph - N/A   Overcast
12:53 PM 54.0 °F 48.0 °F 80% 29.79 in 10.0 mi NW 11.5 mph 20.7 mph N/A   Mostly Cloudy
1:03 PM 54.0 °F 48.9 °F 83% 29.79 in 10.0 mi NW 11.5 mph - N/A   Overcast
1:18 PM 53.1 °F 46.9 °F 80% 29.80 in 10.0 mi NW 11.5 mph - N/A   Overcast
1:53 PM 53.1 °F 48.0 °F 83% 29.81 in 10.0 mi NW 6.9 mph - 0.00 in   Overcast
2:53 PM 53.1 °F 46.9 °F 80% 29.83 in 10.0 mi NW 12.7 mph 19.6 mph N/A   Overcast
3:01 PM 52.0 °F 46.9 °F 83% 29.83 in 10.0 mi WNW 16.1 mph - N/A   Overcast
3:24 PM 52.0 °F 46.9 °F 83% 29.84 in 10.0 mi WNW 13.8 mph 19.6 mph N/A   Overcast
3:53 PM 52.0 °F 46.9 °F 83% 29.85 in 10.0 mi NW 17.3 mph 25.3 mph N/A   Overcast
4:09 PM 52.0 °F 46.9 °F 83% 29.85 in 10.0 mi WNW 15.0 mph 24.2 mph N/A   Overcast
4:53 PM 51.1 °F 46.9 °F 86% 29.86 in 10.0 mi WNW 17.3 mph 26.5 mph N/A   Overcast
5:53 PM 53.1 °F 46.9 °F 80% 29.87 in 10.0 mi NW 10.4 mph - N/A   Overcast
6:26 PM 51.1 °F 46.9 °F 86% 29.87 in 10.0 mi WNW 13.8 mph 21.9 mph N/A   Mostly Cloudy
6:53 PM 51.1 °F 46.9 °F 86% 29.88 in 10.0 mi WNW 12.7 mph 19.6 mph N/A   Scattered Clouds
7:53 PM 51.1 °F 46.9 °F 86% 29.90 in 10.0 mi WNW 6.9 mph - N/A   Scattered Clouds
8:53 PM 50.0 °F 46.0 °F 86% 29.92 in 10.0 mi WNW 6.9 mph - N/A   Overcast
9:13 PM 50.0 °F 46.9 °F 89% 29.92 in 10.0 mi West 3.5 mph - N/A   Overcast
9:53 PM 50.0 °F 46.9 °F 89% 29.94 in 10.0 mi Calm Calm - N/A   Overcast
10:09 PM 50.0 °F 48.0 °F 93% 29.94 in 10.0 mi Calm Calm - N/A   Overcast
10:53 PM 50.0 °F 46.9 °F 89% 29.95 in 10.0 mi West 3.5 mph - N/A   Mostly Cloudy
11:00 PM 48.9 °F 46.9 °F 93% 29.95 in 10.0 mi Calm Calm - N/A   Mostly Cloudy
11:14 PM 48.9 °F 46.9 °F 93% 29.95 in 10.0 mi WNW 3.5 mph - N/A   Mostly Cloudy
11:34 PM 48.9 °F 46.9 °F 93% 29.96 in 10.0 mi Calm Calm - N/A   Overcast
11:53 PM 50.0 °F 46.9 °F 89% 29.97 in 10.0 mi WSW 3.5 mph - N/A   Overcast